RYR5916 LDDU-EPKK

Flight info

Callsign RYR5916
Flight time 1h 23m
Altitude 38000
Route AMUGO DCT UNIPA DCT EVTON/N0443F360 DCT KOPRY/N0444F370 DCT BERVA/N0444F380 DCT MAVOR/N0441F370 DCT NETIR
Aircraft B38M/M-SDE1FGHILORVWXY/HB1

Departure

Time 2026-05-04 13:05
Airport Dubrovnik Ruđer Bošković Airport (LDDU)

Arrival

Time 2026-05-04 14:29
Airport Kraków John Paul II International Airport (EPKK)
Time Latitude Longitude Altitude Speed Heading
2026-05-04 12:39 42.56151 18.26157 536 ft 0 kts 209°
2026-05-04 12:59 42.56153 18.26158 536 ft 2 kts 209°
2026-05-04 13:00 42.56174 18.26174 536 ft 2 kts 208°
2026-05-04 13:00 42.56183 18.26180 536 ft 0 kts 215°
2026-05-04 13:02 42.56178 18.26178 536 ft 3 kts 197°
2026-05-04 13:02 42.56172 18.26187 536 ft 2 kts 105°
2026-05-04 13:02 42.56161 18.26244 536 ft 10 kts 104°
2026-05-04 13:02 42.56139 18.26346 536 ft 12 kts 115°
2026-05-04 13:03 42.56096 18.26455 536 ft 14 kts 118°
2026-05-04 13:03 42.56046 18.26578 536 ft 16 kts 118°
2026-05-04 13:03 42.55992 18.26714 537 ft 17 kts 118°
2026-05-04 13:03 42.55934 18.26859 537 ft 19 kts 117°
2026-05-04 13:04 42.55871 18.27019 537 ft 20 kts 118°
2026-05-04 13:04 42.55797 18.27208 536 ft 27 kts 117°
2026-05-04 13:04 42.55841 18.27339 535 ft 19 kts
2026-05-04 13:04 42.55957 18.27279 535 ft 19 kts 299°
2026-05-04 13:05 42.56071 18.26992 536 ft 67 kts 298°
2026-05-04 13:05 42.56409 18.26141 536 ft 136 kts 298°
2026-05-04 13:05 42.56960 18.24768 689 ft 180 kts 296°
2026-05-04 13:05 42.57539 18.23283 1725 ft 178 kts 296°
2026-05-04 13:06 42.58146 18.21750 2556 ft 194 kts 297°
2026-05-04 13:06 42.58862 18.20096 3101 ft 219 kts 307°
2026-05-04 13:06 42.60017 18.18587 3611 ft 244 kts 321°
2026-05-04 13:06 42.61363 18.17082 4345 ft 259 kts 320°
2026-05-04 13:07 42.62781 18.15471 5177 ft 268 kts 320°
2026-05-04 13:07 42.64203 18.13840 6306 ft 270 kts 322°
2026-05-04 13:07 42.65657 18.12170 7227 ft 275 kts 321°
2026-05-04 13:07 42.67120 18.10479 8205 ft 278 kts 321°
2026-05-04 13:08 42.68600 18.08763 9119 ft 282 kts 321°
2026-05-04 13:08 42.70107 18.07017 10054 ft 287 kts 321°
2026-05-04 13:08 42.71764 18.05497 10614 ft 299 kts 340°
2026-05-04 13:08 42.73772 18.04550 11109 ft 314 kts 341°
2026-05-04 13:09 42.75864 18.03487 11683 ft 326 kts 340°
2026-05-04 13:09 42.77990 18.02383 12513 ft 328 kts 340°
2026-05-04 13:09 42.80135 18.01252 13293 ft 333 kts 340°
2026-05-04 13:09 42.82306 18.00099 14039 ft 336 kts 340°
2026-05-04 13:10 42.84493 17.98932 14758 ft 339 kts 340°
2026-05-04 13:10 42.86700 17.97752 15441 ft 342 kts 340°
2026-05-04 13:10 42.88922 17.96562 16127 ft 345 kts 340°
2026-05-04 13:10 42.91138 17.95374 16778 ft 348 kts 340°
2026-05-04 13:11 42.93399 17.94162 17435 ft 351 kts 340°
2026-05-04 13:11 42.95685 17.92935 18059 ft 354 kts 339°
2026-05-04 13:11 42.97989 17.91697 18669 ft 357 kts 339°
2026-05-04 13:11 43.00309 17.90450 19209 ft 360 kts 339°
2026-05-04 13:12 43.02647 17.89192 19727 ft 362 kts 339°
2026-05-04 13:12 43.04997 17.87927 20245 ft 365 kts 339°
2026-05-04 13:12 43.07367 17.86649 20771 ft 367 kts 339°
2026-05-04 13:12 43.09750 17.85364 21293 ft 370 kts 339°
2026-05-04 13:13 43.12153 17.84067 21804 ft 373 kts 339°
2026-05-04 13:13 43.14541 17.82777 22290 ft 375 kts 339°
2026-05-04 13:13 43.16977 17.81459 22729 ft 378 kts 339°
2026-05-04 13:13 43.19430 17.80132 23162 ft 380 kts 339°
2026-05-04 13:14 43.21895 17.78796 23591 ft 383 kts 339°
2026-05-04 13:14 43.24381 17.77448 23960 ft 385 kts 339°
2026-05-04 13:14 43.26872 17.76097 24341 ft 387 kts 339°
2026-05-04 13:14 43.29383 17.74733 24720 ft 388 kts 339°
2026-05-04 13:15 43.31899 17.73365 25084 ft 390 kts 339°
2026-05-04 13:15 43.34429 17.71989 25448 ft 392 kts 339°
2026-05-04 13:15 43.36973 17.70604 25805 ft 394 kts 338°
2026-05-04 13:15 43.39490 17.69231 26162 ft 396 kts 338°
2026-05-04 13:16 43.42054 17.67833 26519 ft 397 kts 338°
2026-05-04 13:16 43.44625 17.66429 26867 ft 399 kts 338°
2026-05-04 13:16 43.47210 17.65016 27184 ft 401 kts 338°
2026-05-04 13:16 43.49807 17.63595 27514 ft 402 kts 338°
2026-05-04 13:17 43.52415 17.62168 27845 ft 404 kts 338°
2026-05-04 13:17 43.55034 17.60732 28168 ft 406 kts 338°
2026-05-04 13:17 43.57665 17.59289 28474 ft 408 kts 338°
2026-05-04 13:17 43.60308 17.57838 28780 ft 410 kts 338°
2026-05-04 13:18 43.62961 17.56379 29101 ft 411 kts 338°
2026-05-04 13:18 43.65588 17.54934 29396 ft 413 kts 338°
2026-05-04 13:18 43.68266 17.53460 29668 ft 415 kts 338°
2026-05-04 13:18 43.70946 17.51982 29959 ft 416 kts 338°
2026-05-04 13:19 43.73638 17.50497 30225 ft 418 kts 338°
2026-05-04 13:19 43.76344 17.49003 30454 ft 419 kts 338°
2026-05-04 13:19 43.79059 17.47502 30692 ft 420 kts 338°
2026-05-04 13:19 43.81777 17.45998 30937 ft 422 kts 338°
2026-05-04 13:20 43.84507 17.44486 31139 ft 423 kts 338°
2026-05-04 13:20 43.87210 17.42987 31362 ft 424 kts 338°
2026-05-04 13:20 43.89953 17.41465 31582 ft 425 kts 338°
2026-05-04 13:20 43.92706 17.39936 31784 ft 427 kts 338°
2026-05-04 13:21 43.95462 17.38403 31976 ft 428 kts 338°
2026-05-04 13:21 43.98235 17.36859 32225 ft 428 kts 338°
2026-05-04 13:21 44.00997 17.35321 32509 ft 428 kts 337°
2026-05-04 13:21 44.03750 17.33785 32795 ft 427 kts 337°
2026-05-04 13:22 44.06501 17.32250 33060 ft 426 kts 338°
2026-05-04 13:22 44.09249 17.30714 33324 ft 425 kts 338°
2026-05-04 13:22 44.11958 17.29199 33563 ft 425 kts 337°
2026-05-04 13:22 44.14701 17.27662 33818 ft 424 kts 337°
2026-05-04 13:23 44.17436 17.26130 34057 ft 424 kts 337°
2026-05-04 13:23 44.20169 17.24596 34271 ft 423 kts 337°
2026-05-04 13:23 44.22900 17.23062 34438 ft 423 kts 337°
2026-05-04 13:23 44.25629 17.21528 34619 ft 423 kts 337°
2026-05-04 13:24 44.28355 17.19993 34795 ft 423 kts 337°
2026-05-04 13:24 44.31086 17.18455 34967 ft 423 kts 337°
2026-05-04 13:24 44.33816 17.16915 35132 ft 423 kts 337°
2026-05-04 13:25 44.39235 17.13855 35438 ft 423 kts 337°
2026-05-04 13:25 44.41967 17.12310 35598 ft 423 kts 337°
2026-05-04 13:25 44.44692 17.10766 35756 ft 423 kts 337°
2026-05-04 13:25 44.47420 17.09221 35912 ft 423 kts 337°
2026-05-04 13:26 44.50144 17.07675 36038 ft 423 kts 337°
2026-05-04 13:26 44.52878 17.06123 36077 ft 424 kts 337°
2026-05-04 13:26 44.58326 17.03023 36059 ft 422 kts 337°
2026-05-04 13:27 44.63774 16.99918 36062 ft 422 kts 337°
2026-05-04 13:27 44.69226 16.96829 36060 ft 423 kts 341°
2026-05-04 13:28 44.72106 16.96025 36048 ft 423 kts 356°
2026-05-04 13:28 44.75055 16.95953 36062 ft 425 kts 357°
2026-05-04 13:28 44.80978 16.95868 36064 ft 427 kts 358°
2026-05-04 13:29 44.83949 16.95861 36194 ft 427 kts 358°
2026-05-04 13:29 44.86877 16.95862 36324 ft 427 kts 359°
2026-05-04 13:29 44.89852 16.95867 36444 ft 427 kts 359°
2026-05-04 13:29 44.92826 16.95874 36571 ft 427 kts 359°
2026-05-04 13:30 44.95799 16.95882 36688 ft 427 kts 359°
2026-05-04 13:30 44.98774 16.95890 36816 ft 428 kts 359°
2026-05-04 13:30 45.01751 16.95899 36917 ft 428 kts 359°
2026-05-04 13:30 45.04724 16.95908 37042 ft 427 kts 359°
2026-05-04 13:31 45.10679 16.95926 37243 ft 428 kts 359°
2026-05-04 13:31 45.13653 16.95935 37380 ft 427 kts 359°
2026-05-04 13:31 45.16627 16.95944 37494 ft 427 kts 359°
2026-05-04 13:32 45.22527 16.95962 37705 ft 427 kts 359°
2026-05-04 13:32 45.25494 16.95971 37813 ft 426 kts 359°
2026-05-04 13:32 45.28457 16.95980 37926 ft 425 kts 359°
2026-05-04 13:33 45.31408 16.95989 38065 ft 423 kts 359°
2026-05-04 13:33 45.34360 16.95998 38063 ft 425 kts 359°
2026-05-04 13:33 45.40272 16.96016 38060 ft 425 kts 359°
2026-05-04 13:34 45.46192 16.96035 38058 ft 426 kts 359°
2026-05-04 13:34 45.52116 16.96053 38058 ft 426 kts 359°
2026-05-04 13:35 45.61006 16.96080 38058 ft 426 kts 359°
2026-05-04 13:36 45.66932 16.96098 38050 ft 426 kts 359°
2026-05-04 13:36 45.72863 16.96117 38056 ft 426 kts 359°
2026-05-04 13:37 45.78752 16.96136 38048 ft 426 kts 359°
2026-05-04 13:37 45.84682 16.96154 38056 ft 426 kts 359°
2026-05-04 13:38 45.90618 16.96172 38042 ft 426 kts 359°
2026-05-04 13:38 45.96549 16.96191 38060 ft 427 kts 359°
2026-05-04 13:39 46.02487 16.96210 38065 ft 427 kts 359°
2026-05-04 13:39 46.08392 16.96229 38046 ft 427 kts 359°
2026-05-04 13:40 46.14333 16.96247 38043 ft 427 kts 359°
2026-05-04 13:40 46.20286 16.96266 38044 ft 428 kts 359°
2026-05-04 13:41 46.26214 16.96808 38062 ft 429 kts
2026-05-04 13:41 46.32115 16.98165 38058 ft 430 kts
2026-05-04 13:42 46.40975 17.00230 38049 ft 430 kts
2026-05-04 13:42 46.46843 17.01604 38053 ft 430 kts
2026-05-04 13:43 46.52752 17.02992 38045 ft 430 kts
2026-05-04 13:43 46.58664 17.04381 38036 ft 430 kts
2026-05-04 13:44 46.64581 17.05776 38042 ft 431 kts
2026-05-04 13:44 46.70502 17.07176 38046 ft 431 kts
2026-05-04 13:45 46.76422 17.08578 38045 ft 431 kts
2026-05-04 13:45 46.82336 17.09981 38051 ft 431 kts
2026-05-04 13:46 46.88219 17.11380 38051 ft 431 kts
2026-05-04 13:46 46.94136 17.12791 38043 ft 431 kts
2026-05-04 13:47 47.00062 17.14206 38034 ft 431 kts
2026-05-04 13:47 47.05986 17.15625 38035 ft 431 kts
2026-05-04 13:48 47.11909 17.17046 38026 ft 431 kts
2026-05-04 13:48 47.17798 17.18463 38032 ft 431 kts
2026-05-04 13:49 47.23724 17.19892 38031 ft 432 kts
2026-05-04 13:49 47.29658 17.21326 38041 ft 432 kts
2026-05-04 13:50 47.35596 17.22763 38036 ft 432 kts
2026-05-04 13:50 47.41533 17.24205 38038 ft 433 kts
2026-05-04 13:51 47.47435 17.25640 38036 ft 433 kts
2026-05-04 13:51 47.53383 17.27091 38029 ft 433 kts
2026-05-04 13:52 47.62306 17.29273 38019 ft 434 kts
2026-05-04 13:53 47.68262 17.30734 38005 ft 434 kts
2026-05-04 13:53 47.74230 17.32201 38009 ft 434 kts
2026-05-04 13:54 47.83086 17.34384 38003 ft 435 kts
2026-05-04 13:55 47.90886 17.36313 38000 ft 435 kts
2026-05-04 13:55 47.99753 17.38513 38008 ft 435 kts
2026-05-04 13:56 48.05723 17.39999 37997 ft 435 kts
2026-05-04 13:57 48.14700 17.42240 37998 ft 436 kts
2026-05-04 13:58 48.26664 17.45239 37994 ft 436 kts
2026-05-04 13:58 48.35645 17.47498 37999 ft 437 kts
2026-05-04 13:59 48.41606 17.49003 38003 ft 437 kts
2026-05-04 14:00 48.50596 17.51278 38012 ft 437 kts
2026-05-04 14:00 48.59598 17.53564 38014 ft 437 kts
2026-05-04 14:01 48.65595 17.54016 37868 ft 427 kts 357°
2026-05-04 14:01 48.71573 17.53938 36359 ft 431 kts 357°
2026-05-04 14:02 48.74556 17.53887 35926 ft 426 kts 356°
2026-05-04 14:02 48.77500 17.53835 35501 ft 421 kts 357°
2026-05-04 14:02 48.80419 17.54201 34890 ft 425 kts 12°
2026-05-04 14:02 48.83135 17.55820 34390 ft 427 kts 29°
2026-05-04 14:03 48.85520 17.58476 34004 ft 424 kts 37°
2026-05-04 14:03 48.87787 17.61306 33533 ft 421 kts 38°
2026-05-04 14:03 48.90024 17.64163 33000 ft 420 kts 38°
2026-05-04 14:03 48.92237 17.67031 32519 ft 417 kts 38°
2026-05-04 14:04 48.96600 17.72758 31607 ft 411 kts 38°
2026-05-04 14:04 48.98753 17.75600 31144 ft 409 kts 38°
2026-05-04 14:04 49.00900 17.78438 30692 ft 407 kts 39°
2026-05-04 14:05 49.05132 17.84042 29762 ft 404 kts 39°
2026-05-04 14:05 49.07243 17.86843 29286 ft 401 kts 38°
2026-05-04 14:05 49.09337 17.89624 28848 ft 398 kts 38°
2026-05-04 14:06 49.11419 17.92393 28434 ft 395 kts 39°
2026-05-04 14:06 49.13478 17.95134 28011 ft 392 kts 39°
2026-05-04 14:06 49.15527 17.97866 27605 ft 389 kts 39°
2026-05-04 14:06 49.17562 18.00581 27192 ft 387 kts 39°
2026-05-04 14:07 49.19582 18.03279 26793 ft 385 kts 39°
2026-05-04 14:07 49.21593 18.05968 26385 ft 383 kts 39°
2026-05-04 14:07 49.23567 18.08610 26006 ft 381 kts 39°
2026-05-04 14:07 49.25556 18.11278 25614 ft 380 kts 39°
2026-05-04 14:08 49.27540 18.13939 25232 ft 378 kts 39°
2026-05-04 14:08 49.29513 18.16590 24844 ft 377 kts 39°
2026-05-04 14:08 49.31479 18.19234 24473 ft 376 kts 39°
2026-05-04 14:08 49.33444 18.21879 24079 ft 375 kts 40°
2026-05-04 14:09 49.37352 18.27147 23268 ft 374 kts 40°
2026-05-04 14:09 49.38643 18.28891 22986 ft 373 kts 40°
2026-05-04 14:10 49.42512 18.34124 22228 ft 368 kts 40°
2026-05-04 14:10 49.44428 18.36721 21852 ft 366 kts 40°
2026-05-04 14:10 49.46949 18.40140 21361 ft 363 kts 40°
2026-05-04 14:10 49.48833 18.42697 20990 ft 361 kts 40°
2026-05-04 14:11 49.50108 18.44430 20757 ft 360 kts 40°
2026-05-04 14:11 49.53824 18.49490 20012 ft 358 kts 40°
2026-05-04 14:11 49.55703 18.52052 19650 ft 356 kts 40°
2026-05-04 14:12 49.57559 18.54584 19293 ft 355 kts 40°
2026-05-04 14:12 49.59377 18.57069 18941 ft 354 kts 41°
2026-05-04 14:12 49.63050 18.62093 18219 ft 352 kts 41°
2026-05-04 14:13 49.64878 18.64595 17829 ft 350 kts 41°
2026-05-04 14:13 49.66698 18.67090 17450 ft 349 kts 41°
2026-05-04 14:13 49.68501 18.69572 17079 ft 348 kts 43°
2026-05-04 14:13 49.69985 18.72508 16682 ft 346 kts 62°
2026-05-04 14:14 49.71118 18.75774 16349 ft 344 kts 62°
2026-05-04 14:14 49.73372 18.82222 15684 ft 340 kts 63°
2026-05-04 14:14 49.74481 18.85436 15337 ft 338 kts 63°
2026-05-04 14:15 49.76673 18.91809 14646 ft 338 kts 63°
2026-05-04 14:15 49.78863 18.98194 13954 ft 335 kts 63°
2026-05-04 14:16 49.81039 19.04554 13214 ft 334 kts 63°
2026-05-04 14:16 49.82124 19.07732 12870 ft 334 kts 63°
2026-05-04 14:17 49.84289 19.14090 12155 ft 333 kts 64°
2026-05-04 14:17 49.85366 19.17254 11834 ft 332 kts 63°
2026-05-04 14:17 49.87495 19.23527 11156 ft 331 kts 63°
2026-05-04 14:18 49.88567 19.26689 10811 ft 331 kts 63°
2026-05-04 14:18 49.90444 19.33192 10171 ft 328 kts 68°
2026-05-04 14:19 49.92239 19.39601 9609 ft 324 kts 68°
2026-05-04 14:19 49.93134 19.42771 9204 ft 317 kts 68°
2026-05-04 14:19 49.94003 19.45855 8872 ft 308 kts 68°
2026-05-04 14:19 49.94823 19.48866 8551 ft 297 kts 74°
2026-05-04 14:20 49.95276 19.51932 8246 ft 286 kts 81°
2026-05-04 14:20 49.95667 19.54923 7933 ft 279 kts 81°
2026-05-04 14:20 49.96055 19.57842 7664 ft 273 kts 79°
2026-05-04 14:21 49.96831 19.63618 7068 ft 281 kts 81°
2026-05-04 14:21 49.97232 19.66607 6764 ft 285 kts 80°
2026-05-04 14:21 49.97642 19.69637 6466 ft 289 kts 80°
2026-05-04 14:21 49.98053 19.72683 6089 ft 286 kts 80°
2026-05-04 14:22 49.98460 19.75675 5756 ft 280 kts 79°
2026-05-04 14:22 49.98858 19.78603 5450 ft 274 kts 79°
2026-05-04 14:22 49.99245 19.81452 5278 ft 263 kts 80°
2026-05-04 14:22 49.99620 19.84169 5135 ft 252 kts 79°
2026-05-04 14:23 50.00298 19.89193 4922 ft 226 kts 80°
2026-05-04 14:23 50.00614 19.91543 4760 ft 219 kts 80°
2026-05-04 14:23 50.00916 19.93791 4639 ft 212 kts 80°
2026-05-04 14:24 50.01260 19.95993 4509 ft 207 kts 68°
2026-05-04 14:24 50.02127 19.97700 4247 ft 201 kts 33°
2026-05-04 14:24 50.03395 19.98434 3962 ft 193 kts
2026-05-04 14:24 50.04734 19.98337 3757 ft 190 kts 350°
2026-05-04 14:25 50.06034 19.98108 3479 ft 191 kts 350°
2026-05-04 14:25 50.08597 19.97376 2935 ft 183 kts 327°
2026-05-04 14:25 50.09386 19.96051 2660 ft 153 kts 286°
2026-05-04 14:26 50.09538 19.94497 2642 ft 145 kts 272°
2026-05-04 14:26 50.09625 19.92915 2420 ft 142 kts 268°
2026-05-04 14:26 50.09551 19.91409 2259 ft 142 kts 257°
2026-05-04 14:26 50.09360 19.89912 2099 ft 141 kts 256°
2026-05-04 14:27 50.09153 19.88421 1894 ft 141 kts 258°
2026-05-04 14:27 50.08951 19.86924 1737 ft 142 kts 255°
2026-05-04 14:27 50.08734 19.85412 1496 ft 144 kts 258°
2026-05-04 14:27 50.08521 19.83873 1317 ft 147 kts 258°
2026-05-04 14:28 50.08309 19.82338 1112 ft 141 kts 259°
2026-05-04 14:28 50.08098 19.80813 939 ft 142 kts 260°
2026-05-04 14:28 50.07889 19.79299 805 ft 136 kts 258°
2026-05-04 14:28 50.07724 19.78127 801 ft 80 kts 258°
2026-05-04 14:29 50.07601 19.77242 804 ft 23 kts 259°
2026-05-04 14:29 50.07475 19.76847 803 ft 20 kts 165°
2026-05-04 14:30 50.07332 19.76900 802 ft 21 kts 151°
2026-05-04 14:30 50.07323 19.77081 802 ft 20 kts 78°
2026-05-04 14:30 50.07408 19.77691 802 ft 34 kts 78°
2026-05-04 14:31 50.07461 19.78070 802 ft 32 kts 78°
2026-05-04 14:31 50.07550 19.78704 802 ft 29 kts 77°
2026-05-04 14:32 50.07602 19.79095 802 ft 8 kts 82°
2026-05-04 14:32 50.07611 19.79173 802 ft 8 kts 71°
2026-05-04 14:32 50.07636 19.79327 802 ft 22 kts 78°
2026-05-04 14:32 50.07673 19.79595 802 ft 26 kts 79°
2026-05-04 14:33 50.07581 19.79720 802 ft 21 kts 168°
2026-05-04 14:33 50.07490 19.79751 802 ft 0 kts 167°
2026-05-04 14:33 50.07473 19.79757 802 ft 6 kts 167°
2026-05-04 14:33 50.07456 19.79819 802 ft 11 kts 75°
2026-05-04 14:34 50.07507 19.79974 802 ft 21 kts 64°
2026-05-04 14:34 50.07507 19.80058 802 ft 4 kts 137°
2026-05-04 14:34 50.07484 19.80074 802 ft 2 kts 164°
2026-05-04 14:34 50.07476 19.80078 802 ft 1 kts 167°
2026-05-04 14:35 50.07474 19.80078 802 ft 0 kts 167°